This demonstration page uses our WeatherBlox Daily Observations layout. Learn more.

Left ArrowRight Arrow

Hourly Observations for June 10, 2021

Temp ( °F °C ) Dew Point ( °F °C ) Humidity (%) Winds ( mph kmh ) Pressure ( in mb ) Visibility ( mi km ) Precip ( " mm )
12:53 am 00:53 Clear 70 21.1 68 20 93 93 Calm 30.04 1017 10 16 0.00 0.00
1:53 am 01:53 Clear 70 21.1 69 20.6 97 97 Calm 30.04 1017 10 16 0.00 0.00
2:30 am 02:30 Partly Cloudy 70 21.1 68 20 93 93 Calm 30.02 1017 10 16 0.00 0.00
2:41 am 02:41 Mostly Cloudy 70 21.1 68 20 93 93 Calm 30.02 1017 10 16 0.00 0.00
2:53 am 02:53 Mostly Cloudy 69 20.6 68 20 96 96 Calm 30.02 1017 10 16 0.00 0.00
3:53 am 03:53 Cloudy 69 20.6 68 20 96 96 Calm 30.01 1016 10 16 0.00 0.00
4:50 am 04:50 Cloudy with Mist and Fog 70 21 68 20 94 94 Calm 30.00 1016 4 6 0.00 0.00
4:53 am 04:53 Cloudy with Mist and Fog 69 20.6 68 20 96 96 SSW 3 6 30.00 1016 4 6 0.00 0.00
5:28 am 05:28 Cloudy 69 20.6 68 20 96 96 WSW 3 6 30.01 1016 10 16 0.00 0.00
5:53 am 05:53 Cloudy 69 20.6 68 20 96 96 Calm 30.01 1016 10 16 0.00 0.00
6:03 am 06:03 Cloudy 69 20.6 67 19.4 93 93 Calm 30.01 1016 10 16 0.00 0.00
6:36 am 06:36 Mostly Sunny 69 20.6 67 19.4 93 93 SSW 3 6 30.01 1016 10 16 0.00 0.00
6:53 am 06:53 Partly Cloudy 69 20.6 68 20 96 96 SSW 3 6 30.01 1016 10 16 0.00 0.00
6:58 am 06:58 Mostly Cloudy with Mist and Fog 69 20.6 68 20 96 96 Calm 30.02 1016 2 3 0.00 0.00
7:53 am 07:53 Cloudy with Mist and Fog 70 21.1 68 20 93 93 W 3 6 30.02 1017 3 5 0.00 0.00
8:12 am 08:12 Cloudy with Mist and Fog 70 21.1 68 20 93 93 WSW 5 7 30.02 1017 3 5 0.00 0.00
8:53 am 08:53 Cloudy with Mist and Fog 72 22.2 69 20.6 91 91 SSW 3 6 30.03 1017 5 8 0.00 0.00
9:53 am 09:53 Cloudy with Mist and Fog 73 22.8 69 20.6 87 87 SW 6 9 30.05 1018 5 8 0.00 0.00
10:26 am 10:26 Mostly Cloudy with Haze 75 23.9 70 21.1 84 84 VRB 6 9 30.04 1017 5 8 0.00 0.00
10:53 am 10:53 Cloudy 75 23.9 70 21.1 84 84 SSW 6 9 30.04 1017 10 16 0.00 0.00
11:06 am 11:06 Cloudy 76 24.4 70 21.1 82 82 SSW 6 9 30.03 1017 10 16 0.00 0.00
11:48 am 11:48 Cloudy 79 26 70 21 74 74 VRB 7 11 30.03 1017 10 16 0.00 0.00
11:53 am 11:53 Cloudy 78 25.6 69 20.6 74 74 SW 7 11 30.04 1017 10 16 0.00 0.00
12:17 pm 12:17 Cloudy 79 26.1 69 20.6 72 72 S 5 7 30.02 1017 10 16 0.00 0.00
12:34 pm 12:34 Mostly Cloudy 80 26.7 69 20.6 69 69 W 7 11 30.01 1016 10 16 0.00 0.00
12:53 pm 12:53 Mostly Cloudy 81 27.2 69 20.6 67 67 VRB 5 7 30.02 1017 10 16 0.00 0.00
1:53 pm 13:53 Mostly Sunny 84 28.9 68 20 59 59 SSW 13 20 29.99 1016 10 16 0.00 0.00
2:53 pm 14:53 Mostly Cloudy with Light Rain 84 28.9 69 20.6 61 61 WSW 10 17 29.97 1015 10 16 0.00 0.00
3:53 pm 15:53 Mostly Sunny 85 29.4 69 20.6 59 59 SW 8 13 29.95 1014 10 16 0.00 0.00
4:53 pm 16:53 Mostly Cloudy 84 28.9 69 20.6 61 61 SSW 8 13 29.93 1013 10 16 0.00 0.00
5:53 pm 17:53 Mostly Sunny 83 28.3 70 21.1 65 65 SW 9 15 29.91 1013 10 16 0.00 0.00
6:34 pm 18:34 Cloudy with Heavy Rain 78 25.6 71 21.7 79 79 WSW 12 19 29.92 1013 2 2 0.07 1.78
6:38 pm 18:38 Cloudy with Heavy Rain 76 24.4 72 22.2 88 88 WSW 12 19 29.92 1013 1 1 0.13 3.30
6:41 pm 18:41 Cloudy with Heavy Rain 75 23.9 72 22.2 90 90 W 9 15 29.93 1013 0 0 0.18 4.57
6:47 pm 18:47 Cloudy with Heavy Rain 73 23 72 22 94 94 NW 5 7 29.92 1013 1 1 0.29 7.37
6:53 pm 18:53 Cloudy with Light Rain 73 22.8 72 22.2 96 96 WNW 5 7 29.93 1013 1 2 0.36 9.14
6:57 pm 18:57 Cloudy with Light Rain 74 23.3 72 22.2 94 94 NW 5 7 29.92 1013 3 5 0.04 1.02
7:10 pm 19:10 Mostly Cloudy with Light Rain 75 23.9 73 22.8 94 94 SSW 3 6 29.91 1013 10 16 0.13 3.30
7:53 pm 19:53 Mostly Sunny 77 25 73 22.8 88 88 SSW 8 13 29.92 1013 10 16 0.29 7.37
8:53 pm 20:53 Cloudy with Light Rain 74 23.3 72 22.2 94 94 SW 8 13 29.93 1014 8 13 0.05 1.27
9:53 pm 21:53 Partly Cloudy 72 22.2 70 21.1 94 94 SW 5 7 29.94 1014 10 16 0.01 0.25
10:53 pm 22:53 Clear 72 22.2 70 21.1 94 94 SSW 5 7 29.95 1014 10 16 0.00 0.00
11:53 pm 23:53 Mostly Cloudy with Light Rain 72 22.2 70 21.1 94 94 S 6 9 29.95 1014 6 10 0.00 0.00

Powered by AerisWeather